Latest  Newer  Older  Last 2 hours animation  Current image  Latest image 
Rain/snow radar  Infrared sat images 
Real-time lightning map

All time is UTC (add 2 hours to UTC in wintertime, 3 hours to UTC in DST for Latvia local time)

2024/04/24 10:50 EVRA 241050Z 13008KT 070V180 9999 FEW045CB 10/M02 Q1012 NOSIG
2024/04/24 10:50 EVLA 241050Z AUTO 08010KT 030V100 CAVOK 09/M03 Q1011
2024/04/24 10:50 EVVA 241050Z AUTO 14004KT 090V180 CAVOK 08/M02 Q1012
2024/04/24 10:50 EYKA 241050Z 07011KT 9999 -RA OVC009 06/05 Q1009
2024/04/24 10:50 EYPA 241050Z 07005KT 360V140 9999 FEW049 09/M02 Q1010
2024/04/24 10:50 EYSA 241050Z 08011KT 9999 BKN034 OVC043 06/M00 Q1011 NOSIG
2024/04/24 10:50 EYVI 241050Z 08009KT 9999 -RA OVC006 06/05 Q1008 NOSIG

2024/04/24 10:50 EEKE 241050Z 15007KT CAVOK 05/01 Q1014
2024/04/24 10:50 EEPU 241050Z AUTO 22007KT 180V250 9999 SCT060/// 07/M03 Q1015
2024/04/24 10:50 EETN 241050Z 19007KT 160V220 9999 FEW023 BKN049 04/M01 Q1015 NOSIG
2024/04/24 10:50 EETU 241050Z 16006KT 110V230 9999 BKN045 07/M03 Q1016
CD  STATION         ICAO  IATA  SYNOP   LAT     LONG   ELEV   M  N  V  U  A  C
   RIGA AIRPORT     EVRA               56 55N  023 58E   10   X     T          6 LV
   LIELVARDE        EVGA               56 47N  024 51E   61   X     T          7 LV
   LIEPAJA INTL     EVLA        26406  56 31N  021 06E    4   X                8 LV
   VENTPILS         EVVA               57 21N  021 33E    6   X                8 LV
   KAUNAS           EYKA               54 54N  023 55E   77   X     T          6 LT
   PALANGA INTL     EYPA               55 55N  021 03E   10   X                6 LT
   SIAULIAI INTL    EYSA               55 54N  023 24E  135   X     T          6 LT
   VILNIUS INTL     EYVI        26730  54 38N  025 17E  197   X     T          6 LT
   AMARI AIR BASE   EEEI               59 16N  024 12E   19   X     T          7 EE
   KARDLA           EEKA        26116  58 59N  022 50E    4   X                8 EE
   KURESSAARE       EEKE               58 14N  022 31E    4   X                8 EE
   PARNU            EEPU               58 25N  024 28E   14   X                8 EE
   TALLINN          EETN        26038  59 24N  024 49E   40   X     T          8 EE
   TARTU            EETU               58 19N  026 41E   67   X                8 EE

!   CD = 2 letter state (province) abbreviation
!   STATION = 16 character station long name
!   ICAO = 4-character international id
!   IATA = 3-character (FAA) id
!   SYNOP = 5-digit international synoptic number
!   LAT = Latitude (degrees minutes)
!   LON = Longitude (degree minutes)
!   ELEV = Station elevation (meters)
!   M = METAR reporting station.   Also Z=obsolete? site
!   N = NEXRAD (WSR-88D) Radar site
!   V = Aviation-specific flag (V=AIRMET/SIGMET end point, A=ARTCC T=TAF U=T+V)
!   U = Upper air (rawinsonde=X) or Wind Profiler (W) site
!   A = Auto (A=ASOS, W=AWOS, M=Meso, H=Human, G=Augmented) (H/G not yet impl.)
!   C = Office type F=WFO/R=RFC/C=NCEP Center
!   Digit that follows is a priority for plotting (0=highest)
!   Country code (2-char) is last column


cloud coverage image from sat24.com and METAR data from weather.noaa.gov